Regional Weather Roundup
Issued by NWS Charleston, SC

Current Version | Previous Version | Text Only | Print | Product List | Glossary On
Versions: 1 2 3 4 5 6 7 8 9 10 11 12 13 14 15 16 17 18 19 20 21 22 23 24 25 26 27 28 29 30 31 32 33 34 35 36 37 38 39 40 41 42 43 44 45 46 47 48 49 50
000
ASUS42 KCHS 020026
RWRCHS

REGIONAL WEATHER ROUNDUP
NATIONAL WEATHER SERVICE CHARLESTON SC
700 PM EST SUN FEB 01 2015

NOTE: "FAIR" INDICATES FEW OR NO CLOUDS BELOW 12,000 FEET WITH NO
SIGNIFICANT WEATHER AND/OR OBSTRUCTIONS TO VISIBILITY.

NOT ALL STATIONS ARE QUALITY CONTROLLED BY THE NATIONAL
WEATHER SERVICE. USE DATA WITH CAUTION...ESPECIALLY
DEWPOINT OBSERVATIONS.

SCZ027-030-031-034>040-042>050-020100-
...SOUTHEAST SOUTH CAROLINA...

CITY           SKY/WX    TMP DP  RH WIND       PRES   REMARKS
N CHARLESTON   CLOUDY    60  50  69 S7        30.07S
6HR MIN TEMP:  60; 6HR MAX TEMP:  67;

WATERFRONT PRK NOT AVBL
MOUNT PLEASANT MOCLDY    61  54  77 S7        30.07S
PINOPOLIS        N/A     63  50  63 VRB2      29.98F
MONCKS CORNER  FAIR      61  50  67 S3        30.06S
SUMMERVILLE    FAIR      61  52  72 SE5       30.05F
BEAUFORT MCAS  PTCLDY    58  50  75 SE5       30.06S
6HR MIN TEMP:  58; 6HR MAX TEMP:  69;

BEAUFORT ARPT  FAIR      57  52  82 CALM      30.06S
HILTON HEAD IS PTCLDY    57  52  82 S5        30.07F
WALTERBORO     CLOUDY    61  46  59 SE6       30.04F
ALLENDALE      FAIR      63  50  63 S10       30.01S

...SOUTHERN MIDLANDS AND PEE DEE...

CITY           SKY/WX    TMP DP  RH WIND       PRES   REMARKS
GEORGETOWN     NOT AVBL
KINGSTREE      NOT AVBL
ORANGEBURG     CLOUDY    62  46  55 S14       30.02F
6HR MIN TEMP:  62; 6HR MAX TEMP:  68;

BARNWELL       FAIR      63  48  59 S9        30.01F
AIKEN          FAIR      61  45  55 SE7       30.01F
MANNING        FAIR      61   1   9 S7        30.03F
COLUMBIA       CLOUDY    63  46  54 S10       29.99F
6HR MIN TEMP:  63; 6HR MAX TEMP:  67;

SUMTER         CLOUDY    61  46  58 S8        30.01S
6HR MIN TEMP:  61; 6HR MAX TEMP:  66; 6HR PCP:  0.01;

FLORENCE       CLOUDY    60  45  57 S12       30.03F
6HR MIN TEMP:  60; 6HR MAX TEMP:  67;

MYRTLE BEACH   MOCLDY    55  46  71 SE7         N/A
N MYRTLE BEACH CLOUDY    56  46  69 S3        30.08F
6HR MIN TEMP:  56; 6HR MAX TEMP:  60;


$$

GAZ063-065-086>088-099>101-113>116-118-119-134>141-150-020100-
...SOUTHEAST GEORGIA...

CITY           SKY/WX    TMP DP  RH WIND       PRES   REMARKS
SAVANNAH ARPT  CLOUDY    61  49  64 S8        30.05F
6HR MIN TEMP:  60; 6HR MAX TEMP:  71;

HUNTER AAF     MOCLDY    59  51  75 SE5       30.04S
6HR MIN TEMP:  59; 6HR MAX TEMP:  69;

FORT STEWART   CLOUDY    64  50  61 SE6       30.03F
6HR MIN TEMP:  64; 6HR MAX TEMP:  72;

STATESBORO     CLOUDY    64  51  62 S10       30.01F
SYLVANIA       CLOUDY    63  51  65 S7        30.02F
CLAXTON        FAIR      63  52  67 SE5       30.02F

...CSRA...CENTRAL AND FAR SOUTHEAST GEORGIA...

CITY           SKY/WX    TMP DP  RH WIND       PRES   REMARKS
THOMSON        CLOUDY    64  50  60 S6        29.99F
AUGUSTA-BUSH   CLOUDY    64  45  49 S7        29.99F
6HR MIN TEMP:  64; 6HR MAX TEMP:  70;

AUGUSTA-DANIEL CLOUDY    65  45  48 S10       29.98F
SWAINSBORO     LGT RAIN  63  41  45 S7        29.99F
VIDALIA        CLOUDY    63  52  67 S5        30.00F
EASTMAN        CLOUDY    59  56  90 S6        30.00F
HAZLEHURST     MOCLDY    60  56  88 S5        29.98F
ALMA           CLOUDY    64  48  56 S5        30.02F
6HR MIN TEMP:  64; 6HR MAX TEMP:  72;

WAYCROSS       MOCLDY    68  52  55 S5        30.02F
JESUP          MOCLDY    64  55  72 CALM      30.03F
BAXLEY         LGT RAIN  66  48  52 S5        30.01F
BRUNSWICK      MOCLDY    63  54  72 S8        30.06F
SAINT SIMONS   PTCLDY    59  54  83 S6        30.07R
6HR MIN TEMP:  58; 6HR MAX TEMP:  66;


$$

SCZ027-028-034-036>038-045-046-048>050-GAZ119-141-020100-
...LAKE AND SUPPLEMENTAL COASTAL OBSERVATIONS...

STATION/POSITION TIME  TEMP    WIND        PRES    WAVE   SWELL
                       AIR SEA DIR/SP/G            HT/PER HT/PER/DIR
                 (UTC) (F)     (DEG/KT/KT) (MB)    (FT/S) (FT/S/D)
UPR LAKE MARION  NOT AVBL
WINYAH BAY       2300   58     220/  1     1018.0F
LAKE MURRAY      2300   59     150/  4/  6 1015.2F
ACE BASIN NERRS  NOT AVBL
FORT PULASKI     0000   57 53  160/  2/  3 1018.4F
SAPELO ISLAND    0000   60     170/  9     1018.0S

$$

ANZ835-935-AMZ111-154-330-350-352-354-370-450-454-472-020100-
...C-MAN AND BUOY OBSERVATIONS...

STATION/POSITION TIME  TEMP    WIND        PRES    WAVE   SWELL
                       AIR SEA DIR/SP/G            HT/PER HT/PER/DIR
                 (UTC) (F)     (DEG/KT/KT) (MB)    (FT/S) (FT/S/D)
BUOY 41004       2350   67 71  170/ 21/ 27 1017.7F   5/ 5   2/11
BUOY 41008       2350   59 55  180/ 10/ 14 1017.8F   2/12   2/ 70/12
FOLLY BEACH CMAN 0000   56     180/  4/  5 1018.6S
CAPERS NEARSHORE 2300   56     180/  6/  8   N/A
FRIPP NEARSHORE  2300   56     150/  6/  6 1017.8F


STATION/POSITION TIME  TEMP    WIND        PRES    WAVE   SWELL
                       AIR SEA DIR/SP/G            HT/PER HT/PER/DIR
                 (UTC) (F)     (DEG/KT/KT) (MB)    (FT/S) (FT/S/D)
5E ST. MARYS GA  2321      57                N/A     3/10   2/ 90/11
FRYING PAN BUOY  2350   64 63  190/ 19/ 23 1019.7F   4/ 5   2/ 50/ 9
BUOY 41025       2350   62 71  210/ 19/ 25 1020.2F   4/10   3/ 70/10
CAPE LOOKOUT NC  0000   53      80/  4/  4 1019.7F
BUOY 41002       2350   63 71  190/ 16/ 19 1023.5F   6/10   5/ 30/10
BUOY 41010       2320   69 75  130/ 17/ 21 1020.4F
ST AUGUSTINE FL  0000   61     170/ 13/ 14 1018.9R


$$



USA.gov is the U.S. government's official web portal to all federal, state and local government web resources and services.